User: anonymous   Login
Location: Diebersbach
(48.5163°N, 8.0558°E)
Time: 07:43:29
(UTC+00:00)
Language:

USA 281 - Orbit

View from above orbital plane
View from above orbital plane
View from above satellite
View from above satellite

Ground track
Ground track

The orbit data is extracted from the following two-line orbital elements,

1 43145U 18005A   21258.80274621 0.00000000  00000-0  00000-0 0    02
2 43145 106.0068 107.9391 0002000 193.7035 166.2964 13.48002979    07
Epoch (UTC): 15 September 2021 19:15:57
Eccentricity: 0.0002000
inclination: 106.0068°
perigee height: 1078 km
apogee height: 1081 km
right ascension of ascending node: 107.9391°
argument of perigee: 193.7035°
revolutions per day: 13.48002979
mean anomaly at epoch: 166.2964°
orbit number at epoch: 0

The dashed part of the orbit path shows where the satellite is in the earth's shadow,  

DLR